01.01.2018 00:15;945
01.01.2018 00:30;961
01.01.2018 00:45;1.079
01.01.2018 01:00;1.074
01.01.2018 01:15;1.072
01.01.2018 01:30;1.078
01.01.2018 01:45;1.080
01.01.2018 02:00;1.083
01.01.2018 02:15;1.044
01.01.2018 02:30;1.011
01.01.2018 02:45;1.017
01.01.2018 03:00;1.014
01.01.2018 03:15;1.010
01.01.2018 03:30;1.012
01.01.2018 03:45;1.040
01.01.2018 04:00;1.081
01.01.2018 04:15;1.086
01.01.2018 04:30;1.089
01.01.2018 04:45;1.086
01.01.2018 05:00;1.087
01.01.2018 05:15;1.072
01.01.2018 05:30;1.056
01.01.2018 05:45;1.057
01.01.2018 06:00;1.049
01.01.2018 06:15;1.050
01.01.2018 06:30;1.047
01.01.2018 06:45;1.037
01.01.2018 07:00;1.034
01.01.2018 07:15;986
01.01.2018 07:30;984
01.01.2018 07:45;1.031
01.01.2018 08:00;1.032
01.01.2018 08:15;963
01.01.2018 08:30;988
01.01.2018 08:45;1.054
01.01.2018 09:00;1.514
01.01.2018 09:15;3.559
01.01.2018 09:30;5.024
01.01.2018 09:45;6.290
01.01.2018 10:00;8.560
01.01.2018 10:15;12.749
01.01.2018 10:30;15.439
01.01.2018 10:45;11.758
01.01.2018 11:00;12.154
01.01.2018 11:15;9.907
01.01.2018 11:30;9.269
01.01.2018 11:45;11.556
01.01.2018 12:00;14.257
01.01.2018 12:15;13.905
01.01.2018 12:30;12.242
01.01.2018 12:45;15.291
01.01.2018 13:00;18.280
01.01.2018 13:15;15.567
01.01.2018 13:30;9.074
01.01.2018 13:45;7.932
01.01.2018 14:00;6.159
01.01.2018 14:15;4.917
01.01.2018 14:30;3.975
01.01.2018 14:45;3.466
01.01.2018 15:00;2.652
01.01.2018 15:15;2.009
01.01.2018 15:30;3.469
01.01.2018 15:45;4.024
01.01.2018 16:00;2.233
01.01.2018 16:15;1.125
01.01.2018 16:30;1.036
01.01.2018 16:45;1.022
01.01.2018 17:00;1.020
01.01.2018 17:15;1.023
01.01.2018 17:30;1.021
01.01.2018 17:45;1.021
01.01.2018 18:00;1.025
01.01.2018 18:15;1.021
01.01.2018 18:30;1.022
01.01.2018 18:45;1.012
01.01.2018 19:00;997
01.01.2018 19:15;1.001
01.01.2018 19:30;1.002
01.01.2018 19:45;1.005
01.01.2018 20:00;1.005
01.01.2018 20:15;1.013
01.01.2018 20:30;1.017
01.01.2018 20:45;1.017
01.01.2018 21:00;1.022
01.01.2018 21:15;1.011
01.01.2018 21:30;1.035
01.01.2018 21:45;1.045
01.01.2018 22:00;1.049
01.01.2018 22:15;1.052
01.01.2018 22:30;1.057
01.01.2018 22:45;1.055
01.01.2018 23:00;1.064
01.01.2018 23:15;1.069
01.01.2018 23:30;1.069
01.01.2018 23:45;1.072
02.01.2018 00:00;1.073
02.01.2018 00:15;1.003
02.01.2018 00:30;1.047
02.01.2018 00:45;1.047
02.01.2018 01:00;1.041
02.01.2018 01:15;1.060
02.01.2018 01:30;1.074
02.01.2018 01:45;1.065
02.01.2018 02:00;1.044
02.01.2018 02:15;1.044
02.01.2018 02:30;1.046
02.01.2018 02:45;1.042
02.01.2018 03:00;1.047
02.01.2018 03:15;1.046
02.01.2018 03:30;1.047
02.01.2018 03:45;1.051
02.01.2018 04:00;1.076
02.01.2018 04:15;1.076
02.01.2018 04:30;1.076
02.01.2018 04:45;1.069
02.01.2018 05:00;1.059
02.01.2018 05:15;1.066
02.01.2018 05:30;1.057
02.01.2018 05:45;1.044
02.01.2018 06:00;1.039
02.01.2018 06:15;999
02.01.2018 06:30;1.041
02.01.2018 06:45;1.039
02.01.2018 07:00;1.024
02.01.2018 07:15;1.028
02.01.2018 07:30;1.014
02.01.2018 07:45;1.000
02.01.2018 08:00;1.006
02.01.2018 08:15;1.000
02.01.2018 08:30;998
02.01.2018 08:45;1.008
02.01.2018 09:00;1.214
02.01.2018 09:15;1.964
02.01.2018 09:30;2.862
02.01.2018 09:45;3.744
02.01.2018 10:00;5.207
02.01.2018 10:15;6.767
02.01.2018 10:30;7.426
02.01.2018 10:45;9.269
02.01.2018 11:00;14.209
02.01.2018 11:15;13.342
02.01.2018 11:30;14.544
02.01.2018 11:45;17.175
02.01.2018 12:00;28.234
02.01.2018 12:15;23.793
02.01.2018 12:30;20.893
02.01.2018 12:45;14.398
02.01.2018 13:00;8.283
02.01.2018 13:15;7.513
02.01.2018 13:30;7.139
02.01.2018 13:45;7.658
02.01.2018 14:00;8.364
02.01.2018 14:15;7.503
02.01.2018 14:30;6.293
02.01.2018 14:45;6.247
02.01.2018 15:00;6.877
02.01.2018 15:15;6.424
02.01.2018 15:30;5.687
02.01.2018 15:45;4.251
02.01.2018 16:00;2.565
02.01.2018 16:15;1.487
02.01.2018 16:30;1.125
02.01.2018 16:45;1.039
02.01.2018 17:00;1.025
02.01.2018 17:15;1.021
02.01.2018 17:30;1.030
02.01.2018 17:45;1.040
02.01.2018 18:00;1.042
02.01.2018 18:15;1.043
02.01.2018 18:30;1.031
02.01.2018 18:45;1.028
02.01.2018 19:00;1.011
02.01.2018 19:15;993
02.01.2018 19:30;1.029
02.01.2018 19:45;995
02.01.2018 20:00;987
02.01.2018 20:15;1.039
02.01.2018 20:30;1.042
02.01.2018 20:45;1.044
02.01.2018 21:00;1.058
02.01.2018 21:15;1.065
02.01.2018 21:30;1.070
02.01.2018 21:45;1.074
02.01.2018 22:00;1.076
02.01.2018 22:15;1.074
02.01.2018 22:30;1.074
02.01.2018 22:45;1.081
02.01.2018 23:00;1.083
02.01.2018 23:15;1.093
02.01.2018 23:30;1.116
02.01.2018 23:45;1.116
03.01.2018 00:00;1.098
03.01.2018 00:15;1.096
03.01.2018 00:30;1.097
03.01.2018 00:45;1.098
03.01.2018 01:00;1.097
03.01.2018 01:15;1.097
03.01.2018 01:30;1.098
03.01.2018 01:45;1.096
03.01.2018 02:00;1.096
03.01.2018 02:15;1.095
03.01.2018 02:30;1.097
03.01.2018 02:45;1.124
03.01.2018 03:00;1.121
03.01.2018 03:15;1.120
03.01.2018 03:30;1.119
03.01.2018 03:45;1.090
03.01.2018 04:00;1.090
03.01.2018 04:15;1.089
03.01.2018 04:30;1.088
03.01.2018 04:45;1.113
03.01.2018 05:00;1.114
03.01.2018 05:15;1.105
03.01.2018 05:30;1.089
03.01.2018 05:45;1.081
03.01.2018 06:00;1.074
03.01.2018 06:15;1.067
03.01.2018 06:30;1.064
03.01.2018 06:45;1.048
03.01.2018 07:00;1.040
03.01.2018 07:15;1.022
03.01.2018 07:30;1.001
03.01.2018 07:45;993
03.01.2018 08:00;993
03.01.2018 08:15;1.004
03.01.2018 08:30;1.006
03.01.2018 08:45;1.014
03.01.2018 09:00;1.259
03.01.2018 09:15;2.436
03.01.2018 09:30;2.599
03.01.2018 09:45;2.814
03.01.2018 10:00;4.386
03.01.2018 10:15;6.496
03.01.2018 10:30;5.591
03.01.2018 10:45;5.380
03.01.2018 11:00;5.898
03.01.2018 11:15;7.870
03.01.2018 11:30;15.818
03.01.2018 11:45;21.086
03.01.2018 12:00;29.649
03.01.2018 12:15;30.804
03.01.2018 12:30;27.279
03.01.2018 12:45;30.711
03.01.2018 13:00;32.838
03.01.2018 13:15;26.428
03.01.2018 13:30;22.113
03.01.2018 13:45;26.136
03.01.2018 14:00;23.062
03.01.2018 14:15;25.481
03.01.2018 14:30;19.252
03.01.2018 14:45;16.204
03.01.2018 15:00;14.274
03.01.2018 15:15;9.899
03.01.2018 15:30;7.249
03.01.2018 15:45;4.611
03.01.2018 16:00;3.713
03.01.2018 16:15;2.607
03.01.2018 16:30;1.344
03.01.2018 16:45;1.052
03.01.2018 17:00;1.040
03.01.2018 17:15;1.039
03.01.2018 17:30;1.037
03.01.2018 17:45;1.036
03.01.2018 18:00;1.035
03.01.2018 18:15;1.025
03.01.2018 18:30;1.027
03.01.2018 18:45;1.027
03.01.2018 19:00;1.012
03.01.2018 19:15;1.003
03.01.2018 19:30;1.018
03.01.2018 19:45;1.023
03.01.2018 20:00;1.033
03.01.2018 20:15;1.038
03.01.2018 20:30;1.023
03.01.2018 20:45;1.031
03.01.2018 21:00;1.047
03.01.2018 21:15;1.052
03.01.2018 21:30;1.062
03.01.2018 21:45;1.071
03.01.2018 22:00;1.076
03.01.2018 22:15;1.068
03.01.2018 22:30;1.072
03.01.2018 22:45;1.078
03.01.2018 23:00;1.094
03.01.2018 23:15;1.105
03.01.2018 23:30;1.114
03.01.2018 23:45;1.130
04.01.2018 00:00;1.128
04.01.2018 00:15;1.134
04.01.2018 00:30;1.131
04.01.2018 00:45;1.131
04.01.2018 01:00;1.127
04.01.2018 01:15;1.131
04.01.2018 01:30;1.133
04.01.2018 01:45;1.105
04.01.2018 02:00;1.105
04.01.2018 02:15;1.104
04.01.2018 02:30;1.106
04.01.2018 02:45;1.101
04.01.2018 03:00;1.090
04.01.2018 03:15;1.100
04.01.2018 03:30;1.094
04.01.2018 03:45;1.081
04.01.2018 04:00;1.101
04.01.2018 04:15;1.109
04.01.2018 04:30;1.112
04.01.2018 04:45;1.105
04.01.2018 05:00;1.104
04.01.2018 05:15;1.121
04.01.2018 05:30;1.120
04.01.2018 05:45;1.101
04.01.2018 06:00;1.096
04.01.2018 06:15;1.055
04.01.2018 06:30;1.081
04.01.2018 06:45;1.078
04.01.2018 07:00;1.065
04.01.2018 07:15;1.052
04.01.2018 07:30;1.026
04.01.2018 07:45;1.023
04.01.2018 08:00;1.004
04.01.2018 08:15;992
04.01.2018 08:30;989
04.01.2018 08:45;1.006
04.01.2018 09:00;1.100
04.01.2018 09:15;1.255
04.01.2018 09:30;1.574
04.01.2018 09:45;1.766
04.01.2018 10:00;2.146
04.01.2018 10:15;2.355
04.01.2018 10:30;2.660
04.01.2018 10:45;3.114
04.01.2018 11:00;3.254
04.01.2018 11:15;3.171
04.01.2018 11:30;3.523
04.01.2018 11:45;4.137
04.01.2018 12:00;4.893
04.01.2018 12:15;5.110
04.01.2018 12:30;5.672
04.01.2018 12:45;5.502
04.01.2018 13:00;4.553
04.01.2018 13:15;3.484
04.01.2018 13:30;2.967
04.01.2018 13:45;2.696
04.01.2018 14:00;2.745
04.01.2018 14:15;2.755
04.01.2018 14:30;3.055
04.01.2018 14:45;2.781
04.01.2018 15:00;2.561
04.01.2018 15:15;1.865
04.01.2018 15:30;1.715
04.01.2018 15:45;1.675
04.01.2018 16:00;1.374
04.01.2018 16:15;1.056
04.01.2018 16:30;1.015
04.01.2018 16:45;1.018
04.01.2018 17:00;1.022
04.01.2018 17:15;1.026
04.01.2018 17:30;1.028
04.01.2018 17:45;1.026
04.01.2018 18:00;1.025
04.01.2018 18:15;1.033
04.01.2018 18:30;1.039
04.01.2018 18:45;1.042
04.01.2018 19:00;1.045
04.01.2018 19:15;1.046
04.01.2018 19:30;1.051
04.01.2018 19:45;1.053
04.01.2018 20:00;1.031
04.01.2018 20:15;1.025
04.01.2018 20:30;1.031
04.01.2018 20:45;1.036
04.01.2018 21:00;1.029
04.01.2018 21:15;1.030
04.01.2018 21:30;1.031
04.01.2018 21:45;1.031
04.01.2018 22:00;1.060
04.01.2018 22:15;1.075
04.01.2018 22:30;1.089
04.01.2018 22:45;1.091
04.01.2018 23:00;1.095
04.01.2018 23:15;1.088
04.01.2018 23:30;1.083
04.01.2018 23:45;1.081
05.01.2018 00:00;1.062
05.01.2018 00:15;1.087
05.01.2018 00:30;1.108
05.01.2018 00:45;1.134
05.01.2018 01:00;1.139
05.01.2018 01:15;1.135
05.01.2018 01:30;1.136
05.01.2018 01:45;1.136
05.01.2018 02:00;1.120
05.01.2018 02:15;1.116
05.01.2018 02:30;1.086
05.01.2018 02:45;1.087
05.01.2018 03:00;1.117
05.01.2018 03:15;1.132
05.01.2018 03:30;1.107
05.01.2018 03:45;1.108
05.01.2018 04:00;1.107
05.01.2018 04:15;1.113
05.01.2018 04:30;1.127
05.01.2018 04:45;1.128
05.01.2018 05:00;1.126
05.01.2018 05:15;1.124
05.01.2018 05:30;1.112
05.01.2018 05:45;1.100
05.01.2018 06:00;1.080
05.01.2018 06:15;1.072
05.01.2018 06:30;1.072
05.01.2018 06:45;1.067
05.01.2018 07:00;1.060
05.01.2018 07:15;1.039
05.01.2018 07:30;1.007
05.01.2018 07:45;1.011
05.01.2018 08:00;1.010
05.01.2018 08:15;1.005
05.01.2018 08:30;1.005
05.01.2018 08:45;1.036
05.01.2018 09:00;1.265
05.01.2018 09:15;1.684
05.01.2018 09:30;2.198
05.01.2018 09:45;2.553
05.01.2018 10:00;3.085
05.01.2018 10:15;3.957
05.01.2018 10:30;4.639
05.01.2018 10:45;4.958
05.01.2018 11:00;4.802
05.01.2018 11:15;6.476
05.01.2018 11:30;8.117
05.01.2018 11:45;12.271
05.01.2018 12:00;10.901
05.01.2018 12:15;7.413
05.01.2018 12:30;5.101
05.01.2018 12:45;5.083
05.01.2018 13:00;4.859
05.01.2018 13:15;4.115
05.01.2018 13:30;4.020
05.01.2018 13:45;3.383
05.01.2018 14:00;2.894
05.01.2018 14:15;2.484
05.01.2018 14:30;2.456
05.01.2018 14:45;2.626
05.01.2018 15:00;2.648
05.01.2018 15:15;2.449
05.01.2018 15:30;2.017
05.01.2018 15:45;1.839
05.01.2018 16:00;1.423
05.01.2018 16:15;1.207
05.01.2018 16:30;1.063
05.01.2018 16:45;1.039
05.01.2018 17:00;1.032
05.01.2018 17:15;1.038
05.01.2018 17:30;1.052
05.01.2018 17:45;1.055
05.01.2018 18:00;1.038
05.01.2018 18:15;1.034
05.01.2018 18:30;1.026
05.01.2018 18:45;1.020
05.01.2018 19:00;1.022
05.01.2018 19:15;1.015
05.01.2018 19:30;1.025
05.01.2018 19:45;1.026
05.01.2018 20:00;1.025
05.01.2018 20:15;1.028
05.01.2018 20:30;1.038
05.01.2018 20:45;1.052
05.01.2018 21:00;1.055
05.01.2018 21:15;1.057
05.01.2018 21:30;1.068
05.01.2018 21:45;1.084
05.01.2018 22:00;1.090
05.01.2018 22:15;1.102
05.01.2018 22:30;1.100
05.01.2018 22:45;1.110
05.01.2018 23:00;1.107
05.01.2018 23:15;1.098
05.01.2018 23:30;1.112
05.01.2018 23:45;1.113
06.01.2018 00:00;1.117
06.01.2018 00:15;1.119
06.01.2018 00:30;1.111
06.01.2018 00:45;1.109
06.01.2018 01:00;1.110
06.01.2018 01:15;1.035
06.01.2018 01:30;976
06.01.2018 01:45;1.051
06.01.2018 02:00;1.063
06.01.2018 02:15;1.062
06.01.2018 02:30;1.064
06.01.2018 02:45;1.065
06.01.2018 03:00;1.061
06.01.2018 03:15;1.065
06.01.2018 03:30;1.082
06.01.2018 03:45;1.078
06.01.2018 04:00;1.087
06.01.2018 04:15;1.107
06.01.2018 04:30;1.106
06.01.2018 04:45;1.109
06.01.2018 05:00;1.105
06.01.2018 05:15;1.096
06.01.2018 05:30;1.102
06.01.2018 05:45;1.099
06.01.2018 06:00;1.080
06.01.2018 06:15;1.075
06.01.2018 06:30;1.078
06.01.2018 06:45;1.087
06.01.2018 07:00;1.085
06.01.2018 07:15;1.090
06.01.2018 07:30;1.086
06.01.2018 07:45;1.083
06.01.2018 08:00;1.081
06.01.2018 08:15;1.062
06.01.2018 08:30;1.157
06.01.2018 08:45;1.529
06.01.2018 09:00;1.791
06.01.2018 09:15;2.163
06.01.2018 09:30;2.657
06.01.2018 09:45;3.421
06.01.2018 10:00;4.249
06.01.2018 10:15;6.390
06.01.2018 10:30;8.583
06.01.2018 10:45;9.212
06.01.2018 11:00;9.817
06.01.2018 11:15;11.718
06.01.2018 11:30;11.112
06.01.2018 11:45;8.853
06.01.2018 12:00;6.396
06.01.2018 12:15;6.680
06.01.2018 12:30;7.151
06.01.2018 12:45;7.705
06.01.2018 13:00;8.610
06.01.2018 13:15;9.368
06.01.2018 13:30;8.800
06.01.2018 13:45;8.676
06.01.2018 14:00;7.664
06.01.2018 14:15;6.842
06.01.2018 14:30;6.583
06.01.2018 14:45;5.512
06.01.2018 15:00;4.510
06.01.2018 15:15;2.983
06.01.2018 15:30;1.928
06.01.2018 15:45;1.534
06.01.2018 16:00;1.244
06.01.2018 16:15;1.093
06.01.2018 16:30;1.047
06.01.2018 16:45;1.040
06.01.2018 17:00;1.037
06.01.2018 17:15;1.040
06.01.2018 17:30;1.047
06.01.2018 17:45;1.051
06.01.2018 18:00;1.054
06.01.2018 18:15;1.049
06.01.2018 18:30;1.054
06.01.2018 18:45;1.058
06.01.2018 19:00;1.057
06.01.2018 19:15;1.057
06.01.2018 19:30;1.074
06.01.2018 19:45;1.072
06.01.2018 20:00;1.074
06.01.2018 20:15;1.065
06.01.2018 20:30;997
06.01.2018 20:45;1.041
06.01.2018 21:00;1.041
06.01.2018 21:15;1.024
06.01.2018 21:30;1.087
06.01.2018 21:45;1.083
06.01.2018 22:00;1.086
06.01.2018 22:15;1.086
06.01.2018 22:30;1.100
06.01.2018 22:45;1.103
06.01.2018 23:00;1.102
06.01.2018 23:15;1.108
06.01.2018 23:30;1.104
06.01.2018 23:45;1.112
07.01.2018 00:00;1.106
07.01.2018 00:15;1.108
07.01.2018 00:30;1.111
07.01.2018 00:45;1.118
07.01.2018 01:00;1.096
07.01.2018 01:15;975
07.01.2018 01:30;981
07.01.2018 01:45;1.033
07.01.2018 02:00;1.087
07.01.2018 02:15;1.083
07.01.2018 02:30;1.085
07.01.2018 02:45;1.084
07.01.2018 03:00;1.087
07.01.2018 03:15;1.096
07.01.2018 03:30;1.117
07.01.2018 03:45;1.119
07.01.2018 04:00;1.123
07.01.2018 04:15;1.125
07.01.2018 04:30;1.105
07.01.2018 04:45;1.094
07.01.2018 05:00;1.101
07.01.2018 05:15;1.096
07.01.2018 05:30;1.098
07.01.2018 05:45;1.092
07.01.2018 06:00;1.084
07.01.2018 06:15;1.078
07.01.2018 06:30;1.089
07.01.2018 06:45;1.090
07.01.2018 07:00;1.095
07.01.2018 07:15;1.087
07.01.2018 07:30;1.078
07.01.2018 07:45;1.073
07.01.2018 08:00;1.071
07.01.2018 08:15;1.070
07.01.2018 08:30;1.072
07.01.2018 08:45;1.065
07.01.2018 09:00;1.064
07.01.2018 09:15;1.113
07.01.2018 09:30;1.281
07.01.2018 09:45;1.688
07.01.2018 10:00;1.870
07.01.2018 10:15;2.030
07.01.2018 10:30;2.106
07.01.2018 10:45;2.301
07.01.2018 11:00;2.757
07.01.2018 11:15;2.908
07.01.2018 11:30;3.071
07.01.2018 11:45;3.484
07.01.2018 12:00;3.978
07.01.2018 12:15;4.485
07.01.2018 12:30;4.784
07.01.2018 12:45;4.870
07.01.2018 13:00;5.860
07.01.2018 13:15;8.753
07.01.2018 13:30;10.838
07.01.2018 13:45;10.002
07.01.2018 14:00;9.493
07.01.2018 14:15;8.772
07.01.2018 14:30;7.584
07.01.2018 14:45;6.274
07.01.2018 15:00;4.661
07.01.2018 15:15;3.437
07.01.2018 15:30;2.268
07.01.2018 15:45;1.569
07.01.2018 16:00;1.390
07.01.2018 16:15;1.237
07.01.2018 16:30;1.128
07.01.2018 16:45;1.093
07.01.2018 17:00;1.080
07.01.2018 17:15;1.078
07.01.2018 17:30;1.072
07.01.2018 17:45;1.069
07.01.2018 18:00;1.067
07.01.2018 18:15;1.074
07.01.2018 18:30;1.067
07.01.2018 18:45;1.072
07.01.2018 19:00;1.068
07.01.2018 19:15;1.073
07.01.2018 19:30;1.075
07.01.2018 19:45;1.083
07.01.2018 20:00;1.082
07.01.2018 20:15;1.091
07.01.2018 20:30;1.094
07.01.2018 20:45;1.096
07.01.2018 21:00;1.097
07.01.2018 21:15;1.095
07.01.2018 21:30;1.099
07.01.2018 21:45;1.103
07.01.2018 22:00;1.108
07.01.2018 22:15;1.115
07.01.2018 22:30;1.115
07.01.2018 22:45;1.122
07.01.2018 23:00;1.122
07.01.2018 23:15;1.126
07.01.2018 23:30;1.129
07.01.2018 23:45;1.132
08.01.2018 00:00;1.132
08.01.2018 00:15;1.129
08.01.2018 00:30;1.130
08.01.2018 00:45;1.127
08.01.2018 01:00;1.130
08.01.2018 01:15;1.129
08.01.2018 01:30;1.129
08.01.2018 01:45;1.133
08.01.2018 02:00;1.130
08.01.2018 02:15;1.130
08.01.2018 02:30;1.135
08.01.2018 02:45;1.131
08.01.2018 03:00;1.131
08.01.2018 03:15;1.130
08.01.2018 03:30;1.128
08.01.2018 03:45;1.128
08.01.2018 04:00;1.129
08.01.2018 04:15;1.129
08.01.2018 04:30;1.130
08.01.2018 04:45;1.126
08.01.2018 05:00;1.130
08.01.2018 05:15;1.116
08.01.2018 05:30;1.096
08.01.2018 05:45;1.094
08.01.2018 06:00;1.094
08.01.2018 06:15;1.082
08.01.2018 06:30;1.082
08.01.2018 06:45;1.075
08.01.2018 07:00;1.060
08.01.2018 07:15;1.045
08.01.2018 07:30;1.027
08.01.2018 07:45;1.009
08.01.2018 08:00;1.001
08.01.2018 08:15;996
08.01.2018 08:30;987
08.01.2018 08:45;987
08.01.2018 09:00;1.027
08.01.2018 09:15;1.097
08.01.2018 09:30;1.180
08.01.2018 09:45;1.332
08.01.2018 10:00;1.608
08.01.2018 10:15;1.809
08.01.2018 10:30;2.149
08.01.2018 10:45;2.780
08.01.2018 11:00;3.341
08.01.2018 11:15;3.849
08.01.2018 11:30;4.433
08.01.2018 11:45;4.912
08.01.2018 12:00;5.121
08.01.2018 12:15;5.431
08.01.2018 12:30;6.115
08.01.2018 12:45;8.114
08.01.2018 13:00;9.585
08.01.2018 13:15;9.804
08.01.2018 13:30;9.510
08.01.2018 13:45;9.022
08.01.2018 14:00;7.407
08.01.2018 14:15;6.377
08.01.2018 14:30;5.004
08.01.2018 14:45;4.680
08.01.2018 15:00;3.985
08.01.2018 15:15;3.041
08.01.2018 15:30;2.382
08.01.2018 15:45;2.096
08.01.2018 16:00;1.681
08.01.2018 16:15;1.350
08.01.2018 16:30;1.084
08.01.2018 16:45;1.025
08.01.2018 17:00;1.011
08.01.2018 17:15;1.013
08.01.2018 17:30;1.015
08.01.2018 17:45;1.016
08.01.2018 18:00;1.016
08.01.2018 18:15;1.011
08.01.2018 18:30;1.026
08.01.2018 18:45;1.025
08.01.2018 19:00;1.031
08.01.2018 19:15;1.039
08.01.2018 19:30;1.043
08.01.2018 19:45;1.046
08.01.2018 20:00;1.051
08.01.2018 20:15;1.046
08.01.2018 20:30;1.059
08.01.2018 20:45;1.062
08.01.2018 21:00;1.060
08.01.2018 21:15;1.069
08.01.2018 21:30;1.068
08.01.2018 21:45;1.081
08.01.2018 22:00;1.088
08.01.2018 22:15;1.100
08.01.2018 22:30;1.108
08.01.2018 22:45;1.106
08.01.2018 23:00;1.108
08.01.2018 23:15;1.114
08.01.2018 23:30;1.118
08.01.2018 23:45;1.120
09.01.2018 00:00;1.113
09.01.2018 00:15;1.094
09.01.2018 00:30;1.083
09.01.2018 00:45;1.081
09.01.2018 01:00;1.079
09.01.2018 01:15;1.075
09.01.2018 01:30;1.074
09.01.2018 01:45;1.080
09.01.2018 02:00;1.091
09.01.2018 02:15;1.108
09.01.2018 02:30;1.099
09.01.2018 02:45;1.103
09.01.2018 03:00;1.089
09.01.2018 03:15;1.079
09.01.2018 03:30;1.077
09.01.2018 03:45;1.076
09.01.2018 04:00;1.085
09.01.2018 04:15;1.105
09.01.2018 04:30;1.096
09.01.2018 04:45;1.101
09.01.2018 05:00;1.104
09.01.2018 05:15;1.095
09.01.2018 05:30;1.078
09.01.2018 05:45;1.086
09.01.2018 06:00;1.072
09.01.2018 06:15;1.068
09.01.2018 06:30;1.075
09.01.2018 06:45;1.069
09.01.2018 07:00;1.055
09.01.2018 07:15;1.033
09.01.2018 07:30;1.010
09.01.2018 07:45;1.008
09.01.2018 08:00;1.012
09.01.2018 08:15;993
09.01.2018 08:30;950
09.01.2018 08:45;905
09.01.2018 09:00;1.085
09.01.2018 09:15;1.444
09.01.2018 09:30;1.679
09.01.2018 09:45;1.763
09.01.2018 10:00;1.887
09.01.2018 10:15;2.196
09.01.2018 10:30;2.587
09.01.2018 10:45;3.287
09.01.2018 11:00;4.466
09.01.2018 11:15;6.701
09.01.2018 11:30;10.967
09.01.2018 11:45;21.607
09.01.2018 12:00;28.276
09.01.2018 12:15;33.505
09.01.2018 12:30;34.980
09.01.2018 12:45;37.000
09.01.2018 13:00;34.986
09.01.2018 13:15;34.258
09.01.2018 13:30;32.165
09.01.2018 13:45;29.778
09.01.2018 14:00;25.095
09.01.2018 14:15;18.435
09.01.2018 14:30;12.030
09.01.2018 14:45;9.134
09.01.2018 15:00;8.172
09.01.2018 15:15;7.624
09.01.2018 15:30;6.267
09.01.2018 15:45;5.191
09.01.2018 16:00;3.833
09.01.2018 16:15;2.219
09.01.2018 16:30;1.316
09.01.2018 16:45;1.048
09.01.2018 17:00;1.022
09.01.2018 17:15;1.019
09.01.2018 17:30;1.017
09.01.2018 17:45;1.027
09.01.2018 18:00;1.034
09.01.2018 18:15;1.033
09.01.2018 18:30;1.035
09.01.2018 18:45;1.032
09.01.2018 19:00;1.026
09.01.2018 19:15;1.013
09.01.2018 19:30;1.020
09.01.2018 19:45;1.008
09.01.2018 20:00;1.011
09.01.2018 20:15;1.003
09.01.2018 20:30;1.011
09.01.2018 20:45;1.016
09.01.2018 21:00;1.027
09.01.2018 21:15;1.050
09.01.2018 21:30;1.065
09.01.2018 21:45;1.070
09.01.2018 22:00;1.083
09.01.2018 22:15;1.094
09.01.2018 22:30;1.114
09.01.2018 22:45;1.121
09.01.2018 23:00;1.123
09.01.2018 23:15;1.132
09.01.2018 23:30;1.127
09.01.2018 23:45;1.118
10.01.2018 00:00;1.103
10.01.2018 00:15;1.105
10.01.2018 00:30;1.110
10.01.2018 00:45;1.117
10.01.2018 01:00;1.116
10.01.2018 01:15;1.090
10.01.2018 01:30;1.092
10.01.2018 01:45;1.089
10.01.2018 02:00;1.090
10.01.2018 02:15;1.091
10.01.2018 02:30;1.091
10.01.2018 02:45;1.086
10.01.2018 03:00;1.091
10.01.2018 03:15;1.102
10.01.2018 03:30;1.117
10.01.2018 03:45;1.118
10.01.2018 04:00;1.121
10.01.2018 04:15;1.116
10.01.2018 04:30;1.114
10.01.2018 04:45;1.113
10.01.2018 05:00;1.114
10.01.2018 05:15;1.098
10.01.2018 05:30;1.079
10.01.2018 05:45;1.077
10.01.2018 06:00;1.074
10.01.2018 06:15;1.057
10.01.2018 06:30;1.056
10.01.2018 06:45;1.043
10.01.2018 07:00;1.030
10.01.2018 07:15;990
10.01.2018 07:30;962
10.01.2018 07:45;930
10.01.2018 08:00;917
10.01.2018 08:15;906
10.01.2018 08:30;906
10.01.2018 08:45;973
10.01.2018 09:00;1.369
10.01.2018 09:15;2.347
10.01.2018 09:30;3.480
10.01.2018 09:45;4.383
10.01.2018 10:00;5.477
10.01.2018 10:15;7.900
10.01.2018 10:30;12.174
10.01.2018 10:45;16.067
10.01.2018 11:00;18.858
10.01.2018 11:15;21.056
10.01.2018 11:30;26.321
10.01.2018 11:45;26.282
10.01.2018 12:00;28.224
10.01.2018 12:15;20.480
10.01.2018 12:30;18.457
10.01.2018 12:45;23.216
10.01.2018 13:00;23.410
10.01.2018 13:15;19.401
10.01.2018 13:30;17.541
10.01.2018 13:45;20.059
10.01.2018 14:00;26.634
10.01.2018 14:15;21.612
10.01.2018 14:30;14.414
10.01.2018 14:45;9.588
10.01.2018 15:00;8.243
10.01.2018 15:15;7.825
10.01.2018 15:30;6.994
10.01.2018 15:45;4.738
10.01.2018 16:00;2.831
10.01.2018 16:15;2.188
10.01.2018 16:30;1.517
10.01.2018 16:45;984
10.01.2018 17:00;922
10.01.2018 17:15;909
10.01.2018 17:30;916
10.01.2018 17:45;927
10.01.2018 18:00;939
10.01.2018 18:15;954
10.01.2018 18:30;970
10.01.2018 18:45;972
10.01.2018 19:00;978
10.01.2018 19:15;976
10.01.2018 19:30;980
10.01.2018 19:45;996
10.01.2018 20:00;1.002
10.01.2018 20:15;1.013
10.01.2018 20:30;1.023
10.01.2018 20:45;1.021
10.01.2018 21:00;1.019
10.01.2018 21:15;1.023
10.01.2018 21:30;1.022
10.01.2018 21:45;1.038
10.01.2018 22:00;1.041
10.01.2018 22:15;1.061
10.01.2018 22:30;1.061
10.01.2018 22:45;1.049
10.01.2018 23:00;1.053
10.01.2018 23:15;1.058
10.01.2018 23:30;1.064
10.01.2018 23:45;1.093
11.01.2018 00:00;1.095
11.01.2018 00:15;1.089
11.01.2018 00:30;1.059
11.01.2018 00:45;1.029
11.01.2018 01:00;1.034
11.01.2018 01:15;1.039
11.01.2018 01:30;1.038
11.01.2018 01:45;1.032
11.01.2018 02:00;1.035
11.01.2018 02:15;1.049
11.01.2018 02:30;1.051
11.01.2018 02:45;1.052
11.01.2018 03:00;1.053
11.01.2018 03:15;1.067
11.01.2018 03:30;1.077
11.01.2018 03:45;1.087
11.01.2018 04:00;1.100
11.01.2018 04:15;1.101
11.01.2018 04:30;1.093
11.01.2018 04:45;1.093
11.01.2018 05:00;1.091
11.01.2018 05:15;1.085
11.01.2018 05:30;1.061
11.01.2018 05:45;1.062
11.01.2018 06:00;1.058
11.01.2018 06:15;1.046
11.01.2018 06:30;1.041
11.01.2018 06:45;1.031
11.01.2018 07:00;1.018
11.01.2018 07:15;971
11.01.2018 07:30;959
11.01.2018 07:45;926
11.01.2018 08:00;924
11.01.2018 08:15;860
11.01.2018 08:30;804
11.01.2018 08:45;820
11.01.2018 09:00;927
11.01.2018 09:15;1.441
11.01.2018 09:30;2.271
11.01.2018 09:45;2.650
11.01.2018 10:00;3.446
11.01.2018 10:15;4.575